STARLINK-3310 (50835 NORAD) Tracking and Keplerian Element Data

This shows tracking and keplerian element data for the satellite.

Feedback or suggestion? Click here.




ElementValue
Catalog50835
NameSTARLINK-3310
Epoch Orbit381
Epoch Day22.91667824
Epoch Year2022
RAAN119.7512
Inclination53.2175
Eccentricity0.0001117
Argument of Perigee61.4621
Mean Anonmoly258.1367
Mean Motion15.75362959
Decay Rate-0.00821394
L11 50835U 22001AJ 22022.91667824 -.00821394 00000+0 -58644-2 0 9994
L22 50835 53.2175 119.7512 0001117 61.4621 258.1367 15.75362959 3818

Live tracking and technical data element details for STARLINK-3310 (NORAD 50835). STARLINK-3310 can be tracked NOW for your location showing map with azimuth and elevation plus other details from your city location.

Track the satellite on the map from your city or location and see movement details for azimuth, elevation, latitude, longitude, range, height, and movement on the map or in text.







IsCatalogInMostPopularTable: catalog: 50835, numindb: 3
Update: records affected: 1



GetName: 50835 STARLINK-3310

Hit Count: updated at: Mon, 24 Jan 2022 00:39:23 GMT